sat.trackr.live / text

‹ back to catalog

STARLINK-32201

NORAD 61512 · 2024-183D

PAYLOAD ACTIVE UNKNOWN

§ Identity

Operator
Country
US
Launch date
2024-10-15
Launch site
AFETR
Launch vehicle
Mass (kg)
RCS (m²)

Purposes: comms

External: N2YO · Heavens-Above · Gunter

§ Orbital elements

Epoch: 2026-05-25T02:38:02.195232Z

Period
94.11 min
Inclination
53.1589°
Eccentricity
0.0001177
Mean motion
15.30192284 rev/d
Perigee alt
474.4 km
Apogee alt
476.0 km
Semi-major
6,853.4 km
B*
7.4116e-6
RAAN
134.6321°
Arg perigee
76.2190°
Mean anomaly
283.8942°
Rev number
9,153

§ Raw data

STARLINK-322011 61512U 24183D   26145.10974763 -.00000140  00000+0  74116-5 0  99972 61512  53.1589 134.6321 0001177  76.2190 283.8942 15.30192284 91538

JSON: /api/v1/satellites/61512 · /tle

For live sub-satellite position, see the globe view (requires WebGL).

§ Visibility from observer

Set your observer location to see the next 7 days of passes ≥ 10°. The values pass through the URL so the page stays shareable.

No JS? Fill the form by hand. The geolocation button needs JavaScript.